Location: Mount Cross
(36.6390°N, 79.4878°W)
Time: 21:20:13
(UTC+00:00)

Transit 2A - Visible Passes

Search period start: 21 March 2023 00:00
Search period end: 31 March 2023 00:00
Orbit: 591 x 964 km, 66.7° (Epoch: 21 March)

Date Brightness Start Highest point End Pass type
(mag) Time Alt. Az. Time Alt. Az. Time Alt. Az.
21 Mar 7.5 10:18:57 10° S 10:23:42 39° ESE 10:28:56 10° NE visible
22 Mar 8.2 09:45:07 10° SSE 09:49:18 25° ESE 09:53:51 10° NE visible
23 Mar 8.6 09:11:47 10° SE 09:14:59 16° ESE 09:18:22 10° ENE visible
24 Mar 6.1 10:17:35 10° SSW 10:22:48 87° WNW 10:28:39 10° NNE visible
25 Mar 6.5 09:43:24 12° SSW 09:48:14 62° ESE 09:53:58 10° NE visible
26 Mar 7.2 09:10:31 20° SSE 09:13:46 41° ESE 09:19:07 10° NE visible
27 Mar 7.8 08:37:29 22° SE 08:39:21 27° ESE 08:44:04 10° NE visible
27 Mar 6.7 10:17:59 14° WSW 10:22:16 39° NW 10:27:48 10° NNE visible
28 Mar 8.3 08:04:21 17° ESE 08:05:02 17° ESE 08:08:38 10° ENE visible
28 Mar 6.2 09:44:50 29° SW 09:47:32 57° WNW 09:53:21 10° NNE visible
29 Mar 8.8 07:31:07 11° E 07:31:07 11° E 07:31:58 10° E visible
29 Mar 6.0 09:11:36 55° SW 09:12:52 85° WNW 09:18:48 10° NNE visible
30 Mar 6.3 08:38:16 65° ESE 08:38:18 65° ESE 08:44:07 10° NNE visible
30 Mar 7.7 10:18:45 12° W 10:22:07 20° NW 10:26:24 10° N visible
